Location: Kernascl�den
(48.0062°N, 3.3198°W)
Time: 22:18:17
(UTC+00:00)

Cosmos 1455 - Pass Details

Date: 21 January 2021
Orbit: 499 x 520 km, 82.5° (Epoch: 04 March)

Event Time Altitude Azimuth Distance (km) Brightness Sun altitude
Rises 18:37:56 0° 350° (N) 2,631 5.8 -16.7°
Reaches altitude 10° 18:40:04 10° 351° (N) 1,743 4.9 -17.0°
Maximum altitude 18:43:54 88° 73° (ENE) 521 2.1 -17.7°
Drops below altitude 10° 18:47:44 10° 171° (S) 1,741 4.9 -18.3°
Sets 18:49:51 0° 172° (S) 2,626 5.8 -18.6°
